Flag for Canada Weather past 2 weeks in Stephenville, Newfoundland and Labrador, Canada

Now
10 °F

Passing clouds.


Feels Like: -7 °F
Forecast: 4 / 30 °F
Wind: 16 mph from Northwest

Location: Stephenville

Current Time: Mar 3, 2015 at 11:54:56 PM

Latest Report: Mar 3, 2015 at 11:30 PM


Visibility: 15 mi

Pressure: 29.95 "Hg

Humidity: 67%

Dew point: 1 °F

Location of StephenvilleLocation

Historic Weather in Stephenville — Graph

°F

Stephenville temperature yesterday

Maximum temperature yesterday: 28 °F (at 3:30 PM)
Minimum temperature yesterday: 10 °F (at 1:30 AM)
Average temperature yesterday: 23 °F

Past Weeks' High & Low Weather Summary

 TemperatureHumidityPressure
High34 °F (Feb 20, 8:30 AM)100% (Feb 22, 5:30 PM)30.47 "Hg (Feb 22, 5:30 PM)
Low1 °F (Feb 18, 7:30 AM)48% (Feb 28, 11:30 AM)28.73 "Hg (Feb 16, 10:30 PM)
Average20 °F77%29.87 "Hg
* Reported Feb 16 10:30 PM — Mar 3 10:30 PM, Stephenville, Weather by CustomWeather, © 2015

Note: Actual official high and low records may vary slightly from our data, if they occured in-between our weather recording intervals... More about our weather records

Advertising

Stephenville weather history for previous 24 hours

 ConditionsComfort  
Time TempWeatherWind HumidityBarometerVisibility
10:30 PM
Tue, Mar 3
10 °FMostly cloudy.17 mph67%29.96 "Hg8 mi
9:30 PM9 °FMostly cloudy.10 mph72%29.96 "Hg8 mi
8:30 PM9 °FOvercast.15 mph72%29.94 "Hg8 mi
7:30 PM9 °FSnow flurries. Overcast.14 mph72%29.90 "Hg2 mi
6:30 PM9 °FSnow flurries. Overcast.17 mph72%29.85 "Hg2 mi
5:30 PM9 °FSnow flurries. Overcast.18 mph78%29.80 "Hg1 mi
4:30 PM9 °FSnow flurries. Ice fog.23 mph78%29.75 "Hg1 mi
3:30 PM10 °FSnow flurries. Ice fog.28 mph72%29.69 "Hg1 mi
2:30 PM12 °FSnow flurries. Overcast.20 mph79%29.65 "Hg2 mi
1:30 PM12 °FSnow flurries. Ice fog.25 mph79%29.60 "Hg1 mi
1:20 PM14 °FSnow flurries. Ice fog.21 mph73%29.59 "Hg0 mi
12:30 PM14 °FSnow flurries. Overcast.22 mph79%29.57 "Hg1 mi
11:30 AM14 °FSnow flurries. Overcast.26 mph79%29.55 "Hg1 mi
10:30 AM18 °FSnow flurries. Overcast.33 mph79%29.49 "Hg1 mi
9:30 AM21 °FPartly sunny.24 mph74%29.44 "Hg3 mi
8:30 AM21 °FSnow flurries. Partly sunny.23 mph74%29.40 "Hg2 mi
7:30 AM21 °FSnow flurries. Overcast.30 mph80%29.35 "Hg1 mi
6:30 AM21 °FSnow flurries. Overcast.22 mph80%29.31 "Hg3 mi
5:30 AM21 °FSnow flurries. Overcast.18 mph86%29.27 "Hg2 mi
4:30 AM23 °FSnow flurries. Overcast.28 mph80%29.22 "Hg2 mi
3:30 AM23 °FCold.30 mph86%29.18 "Hg1 mi
2:30 AM23 °FSnow flurries. Ice fog.25 mph93%29.14 "Hg1 mi
1:30 AM25 °FSnow flurries. Ice fog.23 mph80%29.12 "Hg1 mi
12:30 AM25 °FSnow flurries. Overcast.18 mph86%29.10 "Hg2 mi
11:30 PM
Mon, Mar 2
25 °FOvercast.18 mph86%29.12 "Hg12 mi
11:24 PM25 °FOvercast.17 mph86%29.13 "Hg12 mi
Weather by CustomWeather, © 2015

See weather overviewHow to use our weather pages